Zurück zum Katalog

SL-8 DEB

AktivLEO
NORAD 25028·DEBRIS·🇷🇺 Russia

Gestartet Jun 16, 1993 von Plesetsk Cosmodrome

Loading…

Nächste Überflüge (nächste 24 Stunden)

TLE

AktuellSource: Space-Track

Epoche: Sep 14, 2026, 09:29 UTC

1 25028U 93036D   26257.39518815  .00000586  00000-0  18628-3 0  9997
2 25028  74.0411 142.5144 0009869 317.6613 158.2517 14.42121271616755

Verfolge SL-8 DEB in Echtzeit mit AllMySat

Download on the App Store